Location: Unspecified
(41.5000°N, 0.0000°E)
Time: 20:16:22
(UTC+00:00)

Vanguard 2 - Pass Details

Date: 25 June 2019
Orbit: 553 x 2938 km, 32.9° (Epoch: 15 July)

Event Time Altitude Azimuth Distance (km) Brightness Sun altitude
Rises 10:51:39 0° 264° (W) 3,548 10.8 66.6°
Reaches altitude 10° 10:53:58 10° 256° (WSW) 2,836 10.4 66.9°
Maximum altitude 11:00:26 39° 189° (S) 2,006 10.6 67.7°
Drops below altitude 10° 11:10:43 10° 127° (SE) 4,501 11.9 68.9°
Sets 11:15:26 0° 121° (ESE) 5,888 12.3 69.4°
